JST678 YMML-YPDN

Flight info

Callsign JST678
Flight time N/A
Altitude 36000
Route KEPPA H336 NATYA J19 BHI T25 GUGAB/N0459F380 T25 TNK J30 TN Q23 VEGPU
Aircraft A20N/M-SDE2E3FGHIRWXY/LB1

Departure

Time 2026-05-05 02:05
Airport Melbourne Airport (YMML)

Arrival

Time N/A
Airport Darwin International Airport / RAAF Darwin (YPDN)
Time Latitude Longitude Altitude Speed Heading
2026-05-05 01:43 -37.67385 144.84416 380 ft 0 kts 37°
2026-05-05 01:54 -37.67397 144.84404 379 ft 3 kts 37°
2026-05-05 01:54 -37.67414 144.84389 378 ft 3 kts 37°
2026-05-05 01:54 -37.67430 144.84373 378 ft 3 kts 37°
2026-05-05 01:55 -37.67447 144.84357 377 ft 3 kts 36°
2026-05-05 01:55 -37.67464 144.84343 376 ft 3 kts 32°
2026-05-05 01:55 -37.67481 144.84331 376 ft 3 kts 22°
2026-05-05 01:55 -37.67495 144.84326 375 ft 2 kts
2026-05-05 01:56 -37.67504 144.84326 375 ft 1 kts 353°
2026-05-05 01:56 -37.67510 144.84327 374 ft 0 kts 351°
2026-05-05 01:59 -37.67503 144.84326 375 ft 6 kts 352°
2026-05-05 01:59 -37.67425 144.84312 377 ft 17 kts 352°
2026-05-05 01:59 -37.67281 144.84285 380 ft 23 kts 351°
2026-05-05 01:59 -37.67125 144.84255 383 ft 23 kts 351°
2026-05-05 02:00 -37.66971 144.84227 386 ft 22 kts 351°
2026-05-05 02:00 -37.66824 144.84199 390 ft 21 kts 352°
2026-05-05 02:00 -37.66690 144.84174 396 ft 19 kts 352°
2026-05-05 02:00 -37.66612 144.84159 399 ft 7 kts 352°
2026-05-05 02:01 -37.66566 144.84152 400 ft 6 kts
2026-05-05 02:01 -37.66544 144.84176 401 ft 3 kts 76°
2026-05-05 02:01 -37.66540 144.84209 403 ft 5 kts 80°
2026-05-05 02:01 -37.66533 144.84265 403 ft 8 kts 82°
2026-05-05 02:02 -37.66523 144.84352 403 ft 12 kts 81°
2026-05-05 02:02 -37.66508 144.84475 404 ft 16 kts 82°
2026-05-05 02:02 -37.66489 144.84633 406 ft 20 kts 81°
2026-05-05 02:02 -37.66483 144.84682 407 ft 2 kts 80°
2026-05-05 02:03 -37.66472 144.84713 404 ft 6 kts 61°
2026-05-05 02:03 -37.66413 144.84772 410 ft 14 kts 13°
2026-05-05 02:03 -37.66352 144.84785 408 ft 0 kts
2026-05-05 02:04 -37.66330 144.84787 411 ft 9 kts
2026-05-05 02:04 -37.66245 144.84784 411 ft 15 kts 334°
2026-05-05 02:04 -37.66223 144.84730 412 ft 5 kts 278°
2026-05-05 02:04 -37.66216 144.84616 409 ft 40 kts 274°
2026-05-05 02:05 -37.66178 144.83943 413 ft 111 kts 274°
2026-05-05 02:05 -37.66128 144.82734 464 ft 159 kts 270°
2026-05-05 02:05 -37.66069 144.81290 1049 ft 172 kts 270°
2026-05-05 02:05 -37.66002 144.79747 1855 ft 181 kts 271°
2026-05-05 02:06 -37.65920 144.78079 2371 ft 202 kts 272°
2026-05-05 02:06 -37.65810 144.76219 2805 ft 222 kts 273°
2026-05-05 02:06 -37.65680 144.74211 3237 ft 244 kts 273°
2026-05-05 02:06 -37.65536 144.72045 3981 ft 249 kts 274°
2026-05-05 02:07 -37.65385 144.69810 4148 ft 255 kts 274°
2026-05-05 02:07 -37.65226 144.67605 4262 ft 250 kts 278°
2026-05-05 02:07 -37.64896 144.66211 4333 ft 253 kts 295°
2026-05-05 02:07 -37.63255 144.64044 4626 ft 263 kts 326°
2026-05-05 02:08 -37.61713 144.62831 5314 ft 265 kts 325°
2026-05-05 02:08 -37.60140 144.61577 6111 ft 270 kts 324°
2026-05-05 02:08 -37.58543 144.60294 6858 ft 275 kts 324°
2026-05-05 02:08 -37.56915 144.58983 7611 ft 278 kts 324°
2026-05-05 02:09 -37.55277 144.57665 8408 ft 281 kts 324°
2026-05-05 02:09 -37.54160 144.56766 8910 ft 284 kts 324°
2026-05-05 02:09 -37.51928 144.54973 9923 ft 290 kts 323°
2026-05-05 02:09 -37.50795 144.54064 10347 ft 296 kts 323°
2026-05-05 02:10 -37.48994 144.52612 10586 ft 318 kts 324°
2026-05-05 02:10 -37.46398 144.50523 10996 ft 341 kts 324°
2026-05-05 02:10 -37.45067 144.49458 11441 ft 343 kts 324°
2026-05-05 02:10 -37.43045 144.47844 12125 ft 347 kts 324°
2026-05-05 02:11 -37.40993 144.46205 12831 ft 350 kts 324°
2026-05-05 02:11 -37.38919 144.44548 13507 ft 354 kts 324°
2026-05-05 02:11 -37.36820 144.42871 14176 ft 358 kts 324°
2026-05-05 02:11 -37.34711 144.41186 14749 ft 362 kts 324°
2026-05-05 02:12 -37.32591 144.39494 15323 ft 366 kts 324°
2026-05-05 02:12 -37.28243 144.36025 16476 ft 374 kts 324°
2026-05-05 02:12 -37.26032 144.34263 17026 ft 378 kts 324°
2026-05-05 02:13 -37.23794 144.32481 17580 ft 382 kts 324°
2026-05-05 02:13 -37.21540 144.30686 18132 ft 386 kts 324°
2026-05-05 02:13 -37.19255 144.28869 18653 ft 390 kts 324°
2026-05-05 02:13 -37.16947 144.27035 19157 ft 393 kts 324°
2026-05-05 02:14 -37.14623 144.25189 19655 ft 397 kts 324°
2026-05-05 02:14 -37.12278 144.23329 20128 ft 400 kts 324°
2026-05-05 02:14 -37.09919 144.21458 20617 ft 403 kts 324°
2026-05-05 02:14 -37.07574 144.19600 21085 ft 406 kts 324°
2026-05-05 02:15 -37.05176 144.17702 21556 ft 409 kts 324°
2026-05-05 02:15 -37.02757 144.15788 22026 ft 412 kts 324°
2026-05-05 02:15 -37.00323 144.13863 22494 ft 415 kts 324°
2026-05-05 02:15 -36.97867 144.11924 22958 ft 418 kts 324°
2026-05-05 02:16 -36.95395 144.09973 23410 ft 421 kts 324°
2026-05-05 02:16 -36.92902 144.08007 23844 ft 425 kts 324°
2026-05-05 02:16 -36.90402 144.06037 24268 ft 426 kts 324°
2026-05-05 02:16 -36.87884 144.04055 24687 ft 427 kts 325°
2026-05-05 02:17 -36.85364 144.02073 25086 ft 429 kts 325°
2026-05-05 02:17 -36.82830 144.00081 25478 ft 431 kts 325°
2026-05-05 02:17 -36.80270 143.98199 25868 ft 434 kts 330°
2026-05-05 02:17 -36.77497 143.96671 26248 ft 438 kts 338°
2026-05-05 02:18 -36.74600 143.95464 26617 ft 440 kts 339°
2026-05-05 02:18 -36.71685 143.94265 26990 ft 441 kts 339°
2026-05-05 02:18 -36.68760 143.93055 27353 ft 443 kts 339°
2026-05-05 02:18 -36.65835 143.91841 27713 ft 444 kts 339°
2026-05-05 02:19 -36.62894 143.90620 28045 ft 445 kts 339°
2026-05-05 02:19 -36.59942 143.89395 28375 ft 447 kts 339°
2026-05-05 02:19 -36.57025 143.88186 28692 ft 448 kts 339°
2026-05-05 02:19 -36.54064 143.86960 29015 ft 449 kts 339°
2026-05-05 02:20 -36.51096 143.85732 29326 ft 450 kts 338°
2026-05-05 02:20 -36.48116 143.84501 29622 ft 452 kts 338°
2026-05-05 02:20 -36.45127 143.83266 29914 ft 453 kts 338°
2026-05-05 02:20 -36.42136 143.82032 30205 ft 454 kts 338°
2026-05-05 02:21 -36.39134 143.80794 30466 ft 455 kts 338°
2026-05-05 02:21 -36.36119 143.79553 30730 ft 456 kts 338°
2026-05-05 02:21 -36.33109 143.78313 30990 ft 457 kts 338°
2026-05-05 02:21 -36.30082 143.77069 31239 ft 458 kts 338°
2026-05-05 02:22 -36.27062 143.75828 31550 ft 457 kts 338°
2026-05-05 02:22 -36.24088 143.74608 31892 ft 455 kts 338°
2026-05-05 02:22 -36.21086 143.73378 32247 ft 453 kts 338°
2026-05-05 02:22 -36.18100 143.72154 32592 ft 451 kts 338°
2026-05-05 02:23 -36.15117 143.70933 32905 ft 450 kts 337°
2026-05-05 02:23 -36.12148 143.69718 33212 ft 448 kts 337°
2026-05-05 02:23 -36.09194 143.68510 33527 ft 447 kts 337°
2026-05-05 02:23 -36.06244 143.67305 33808 ft 446 kts 337°
2026-05-05 02:24 -36.03302 143.66103 34067 ft 445 kts 337°
2026-05-05 02:24 -36.00364 143.64904 34312 ft 444 kts 337°
2026-05-05 02:24 -35.97427 143.63707 34507 ft 444 kts 337°
2026-05-05 02:24 -35.94498 143.62513 34689 ft 443 kts 337°
2026-05-05 02:25 -35.91562 143.61318 34873 ft 443 kts 337°
2026-05-05 02:25 -35.88628 143.60124 35049 ft 443 kts 337°
2026-05-05 02:25 -35.85704 143.58936 35226 ft 443 kts 337°
2026-05-05 02:25 -35.82777 143.57747 35397 ft 442 kts 337°
2026-05-05 02:26 -35.79892 143.56576 35551 ft 442 kts 337°
2026-05-05 02:26 -35.76970 143.55392 35701 ft 442 kts 337°
2026-05-05 02:26 -35.74040 143.54204 35853 ft 442 kts 337°
2026-05-05 02:26 -35.71123 143.53023 36000 ft 441 kts 337°
2026-05-05 02:27 -35.68204 143.51842 36147 ft 441 kts 338°
2026-05-05 02:27 -35.62378 143.49488 36226 ft 440 kts 338°
2026-05-05 02:28 -35.56559 143.47140 36228 ft 440 kts 338°
2026-05-05 02:28 -35.50736 143.44793 36227 ft 440 kts 338°
2026-05-05 02:29 -35.44917 143.42452 36230 ft 440 kts 338°
2026-05-05 02:29 -35.39091 143.40111 36227 ft 440 kts 338°
2026-05-05 02:30 -35.33306 143.37791 36230 ft 440 kts 338°
2026-05-05 02:30 -35.27488 143.35461 36232 ft 440 kts 338°
2026-05-05 02:31 -35.21670 143.33134 36233 ft 440 kts 338°
2026-05-05 02:31 -35.15857 143.30814 36234 ft 439 kts 338°
2026-05-05 02:32 -35.10042 143.28496 36237 ft 439 kts 338°
2026-05-05 02:32 -35.04229 143.26181 36236 ft 439 kts 338°
2026-05-05 02:33 -34.98415 143.23861 36240 ft 438 kts 336°
2026-05-05 02:33 -34.92886 143.20826 36242 ft 435 kts 329°
2026-05-05 02:34 -34.87496 143.17489 36237 ft 435 kts 330°
2026-05-05 02:34 -34.82130 143.14190 36241 ft 435 kts 330°
2026-05-05 02:35 -34.76731 143.10879 36237 ft 435 kts 330°
2026-05-05 02:35 -34.71323 143.07569 36241 ft 435 kts 330°
2026-05-05 02:36 -34.65921 143.04267 36244 ft 435 kts 330°
2026-05-05 02:36 -34.60512 143.00965 36244 ft 435 kts 330°
2026-05-05 02:37 -34.55103 142.97668 36248 ft 435 kts 330°
2026-05-05 02:37 -34.49715 142.94389 36246 ft 435 kts 330°
2026-05-05 02:38 -34.44305 142.91101 36249 ft 435 kts 330°
2026-05-05 02:38 -34.38888 142.87814 36244 ft 435 kts 330°
2026-05-05 02:39 -34.33467 142.84529 36247 ft 435 kts 330°
2026-05-05 02:39 -34.28047 142.81250 36250 ft 435 kts 330°
2026-05-05 02:40 -34.22654 142.77991 36247 ft 435 kts 330°
2026-05-05 02:40 -34.17227 142.74717 36248 ft 436 kts 330°
2026-05-05 02:41 -34.11804 142.71450 36247 ft 436 kts 330°
2026-05-05 02:41 -34.06371 142.68181 36246 ft 436 kts 331°
2026-05-05 02:42 -34.00975 142.64939 36252 ft 436 kts 331°
2026-05-05 02:42 -33.95535 142.61676 36253 ft 436 kts 331°
2026-05-05 02:43 -33.90089 142.58414 36247 ft 437 kts 331°
2026-05-05 02:43 -33.84645 142.55157 36251 ft 437 kts 331°
2026-05-05 02:44 -33.79195 142.51915 36252 ft 437 kts 331°
2026-05-05 02:44 -33.73742 142.48685 36254 ft 437 kts 331°
2026-05-05 02:45 -33.68280 142.45451 36251 ft 437 kts 331°
2026-05-05 02:45 -33.62817 142.42219 36253 ft 437 kts 331°
2026-05-05 02:46 -33.57389 142.39013 36250 ft 437 kts 331°
2026-05-05 02:46 -33.51923 142.35790 36249 ft 437 kts 331°
2026-05-05 02:47 -33.46458 142.32571 36251 ft 437 kts 331°
2026-05-05 02:47 -33.40998 142.29360 36252 ft 437 kts 331°
2026-05-05 02:48 -33.35535 142.26152 36250 ft 437 kts 331°
2026-05-05 02:48 -33.30065 142.22944 36249 ft 437 kts 331°
2026-05-05 02:49 -33.24596 142.19741 36254 ft 437 kts 331°
2026-05-05 02:49 -33.19164 142.16565 36249 ft 437 kts 331°
2026-05-05 02:50 -33.13702 142.13375 36255 ft 437 kts 332°
2026-05-05 02:50 -33.08237 142.10188 36254 ft 437 kts 332°
2026-05-05 02:51 -33.02766 142.07003 36247 ft 437 kts 332°
2026-05-05 02:51 -32.97291 142.03818 36247 ft 437 kts 332°
2026-05-05 02:52 -32.91821 142.00644 36255 ft 437 kts 332°
2026-05-05 02:52 -32.86341 141.97466 36244 ft 437 kts 332°
2026-05-05 02:53 -32.80903 141.94316 36245 ft 437 kts 332°
2026-05-05 02:53 -32.75428 141.91150 36247 ft 437 kts 332°
2026-05-05 02:54 -32.69952 141.87987 36247 ft 437 kts 332°
2026-05-05 02:54 -32.64477 141.84830 36249 ft 437 kts 332°
2026-05-05 02:55 -32.59931 141.82211 36250 ft 437 kts 332°
2026-05-05 02:55 -32.54455 141.79060 36248 ft 437 kts 332°
2026-05-05 02:56 -32.48983 141.75917 36248 ft 437 kts 332°
2026-05-05 02:56 -32.42621 141.72267 36250 ft 437 kts 332°
2026-05-05 02:57 -32.37139 141.69126 36245 ft 437 kts 332°
2026-05-05 02:57 -32.32586 141.66521 36246 ft 436 kts 332°
2026-05-05 02:58 -32.27117 141.63396 36247 ft 436 kts 332°
2026-05-05 02:58 -32.21649 141.60276 36246 ft 436 kts 332°
2026-05-05 02:59 -32.16185 141.57162 36243 ft 436 kts 332°
2026-05-05 02:59 -32.10717 141.54050 36241 ft 436 kts 332°
2026-05-05 03:00 -32.05294 141.50968 36248 ft 435 kts 332°
2026-05-05 03:00 -31.99861 141.47820 36242 ft 434 kts 328°
2026-05-05 03:01 -31.94733 141.44099 36238 ft 433 kts 326°
2026-05-05 03:01 -31.89621 141.40336 36239 ft 432 kts 326°
2026-05-05 03:02 -31.84514 141.36593 36236 ft 432 kts 326°
2026-05-05 03:02 -31.79438 141.32879 36243 ft 432 kts 326°
2026-05-05 03:03 -31.74330 141.29148 36244 ft 432 kts 326°
2026-05-05 03:03 -31.69224 141.25421 36242 ft 432 kts 326°
2026-05-05 03:04 -31.64123 141.21704 36238 ft 431 kts 326°
2026-05-05 03:04 -31.59023 141.17992 36234 ft 431 kts 326°
2026-05-05 03:05 -31.53964 141.14315 36234 ft 430 kts 326°
2026-05-05 03:05 -31.48865 141.10613 36236 ft 430 kts 326°
2026-05-05 03:06 -31.43771 141.06921 36231 ft 430 kts 326°
2026-05-05 03:06 -31.38694 141.03245 36229 ft 429 kts 326°
2026-05-05 03:07 -31.33616 140.99573 36229 ft 429 kts 326°
2026-05-05 03:07 -31.28529 140.95923 36231 ft 428 kts 326°
2026-05-05 03:08 -31.23483 140.92306 36228 ft 428 kts 326°
2026-05-05 03:08 -31.18404 140.88668 36232 ft 428 kts 326°
2026-05-05 03:09 -31.13327 140.85035 36230 ft 428 kts 326°
2026-05-05 03:09 -31.08257 140.81412 36231 ft 427 kts 326°
2026-05-05 03:10 -31.03184 140.77792 36229 ft 427 kts 326°
2026-05-05 03:10 -30.98105 140.74172 36232 ft 427 kts 326°
2026-05-05 03:11 -30.93041 140.70568 36238 ft 427 kts 326°
2026-05-05 03:11 -30.87972 140.66964 36239 ft 426 kts 326°
2026-05-05 03:12 -30.82942 140.63392 36243 ft 426 kts 326°
2026-05-05 03:12 -30.77875 140.59799 36236 ft 426 kts 326°
2026-05-05 03:13 -30.72811 140.56213 36240 ft 426 kts 326°
2026-05-05 03:13 -30.67754 140.52635 36239 ft 425 kts 326°
2026-05-05 03:14 -30.62693 140.49060 36243 ft 425 kts 326°
2026-05-05 03:14 -30.57678 140.45521 36241 ft 424 kts 325°
2026-05-05 03:15 -30.52631 140.41964 36237 ft 424 kts 325°
2026-05-05 03:15 -30.47590 140.38415 36238 ft 423 kts 325°
2026-05-05 03:16 -30.42555 140.34875 36239 ft 423 kts 325°
2026-05-05 03:16 -30.37509 140.31332 36237 ft 423 kts 325°
2026-05-05 03:17 -30.32511 140.27827 36236 ft 422 kts 325°
2026-05-05 03:17 -30.27485 140.24306 36234 ft 422 kts 325°
2026-05-05 03:18 -30.22458 140.20789 36234 ft 422 kts 325°
2026-05-05 03:18 -30.17434 140.17278 36234 ft 422 kts 325°
2026-05-05 03:19 -30.09899 140.12021 36235 ft 422 kts 325°
2026-05-05 03:19 -30.04867 140.08515 36231 ft 422 kts 325°
2026-05-05 03:20 -29.99872 140.05039 36233 ft 422 kts 325°
2026-05-05 03:20 -29.94849 140.01548 36232 ft 422 kts 325°
2026-05-05 03:21 -29.89823 139.98058 36232 ft 422 kts 325°
2026-05-05 03:21 -29.84798 139.94574 36238 ft 422 kts 325°
2026-05-05 03:22 -29.79765 139.91089 36236 ft 422 kts 325°
2026-05-05 03:22 -29.74731 139.87606 36238 ft 422 kts 325°
2026-05-05 03:23 -29.69694 139.84125 36233 ft 422 kts 325°
2026-05-05 03:23 -29.64537 139.80856 36235 ft 424 kts 328°
2026-05-05 03:24 -29.59335 139.77633 36233 ft 424 kts 328°
2026-05-05 03:24 -29.54143 139.74417 36236 ft 424 kts 328°
2026-05-05 03:25 -29.48949 139.71205 36232 ft 424 kts 328°
2026-05-05 03:25 -29.43748 139.67995 36231 ft 424 kts 328°
2026-05-05 03:26 -29.38583 139.64812 36236 ft 424 kts 328°
2026-05-05 03:26 -29.33377 139.61607 36233 ft 424 kts 328°
2026-05-05 03:27 -29.28180 139.58412 36235 ft 424 kts 328°
2026-05-05 03:27 -29.22976 139.55215 36234 ft 424 kts 328°
2026-05-05 03:28 -29.17774 139.52024 36232 ft 424 kts 328°
2026-05-05 03:28 -29.12570 139.48835 36229 ft 424 kts 328°
2026-05-05 03:29 -29.07392 139.45666 36232 ft 424 kts 328°
2026-05-05 03:29 -29.02184 139.42482 36229 ft 424 kts 328°
2026-05-05 03:30 -28.96975 139.39302 36228 ft 424 kts 328°
2026-05-05 03:30 -28.91770 139.36127 36229 ft 424 kts 328°
2026-05-05 03:31 -28.86562 139.32954 36229 ft 424 kts 328°
2026-05-05 03:31 -28.81386 139.29804 36230 ft 424 kts 328°
2026-05-05 03:32 -28.76174 139.26635 36228 ft 424 kts 328°
2026-05-05 03:32 -28.70965 139.23473 36229 ft 424 kts 328°
2026-05-05 03:33 -28.65758 139.20315 36223 ft 424 kts 328°
2026-05-05 03:33 -28.60548 139.17159 36224 ft 424 kts 328°
2026-05-05 03:34 -28.55332 139.14002 36224 ft 424 kts 327°
2026-05-05 03:34 -28.50126 139.10856 36227 ft 424 kts 327°
2026-05-05 03:35 -28.44910 139.07707 36222 ft 424 kts 327°
2026-05-05 03:35 -28.39699 139.04564 36223 ft 424 kts 327°
2026-05-05 03:36 -28.34516 139.01443 36223 ft 424 kts 327°
2026-05-05 03:36 -28.29299 138.98303 36223 ft 424 kts 327°
2026-05-05 03:37 -28.24074 138.95163 36221 ft 424 kts 327°
2026-05-05 03:37 -28.18852 138.92028 36224 ft 425 kts 327°
2026-05-05 03:38 -28.13621 138.88891 36221 ft 425 kts 327°
2026-05-05 03:38 -28.08395 138.85760 36213 ft 425 kts 327°
2026-05-05 03:39 -28.03168 138.82632 36217 ft 425 kts 327°
2026-05-05 03:39 -27.97970 138.79526 36218 ft 425 kts 327°
2026-05-05 03:40 -27.92741 138.76404 36219 ft 425 kts 327°
2026-05-05 03:40 -27.87513 138.73286 36211 ft 425 kts 327°
2026-05-05 03:41 -27.82281 138.70169 36209 ft 425 kts 327°
2026-05-05 03:41 -27.77039 138.67050 36209 ft 425 kts 327°
2026-05-05 03:42 -27.71803 138.63937 36210 ft 425 kts 327°
2026-05-05 03:42 -27.67451 138.61353 36208 ft 425 kts 327°
2026-05-05 03:43 -27.62220 138.58250 36210 ft 425 kts 327°
2026-05-05 03:43 -27.56132 138.54642 36206 ft 425 kts 327°
2026-05-05 03:44 -27.51778 138.52065 36210 ft 425 kts 327°
2026-05-05 03:44 -27.46532 138.48963 36212 ft 425 kts 327°
2026-05-05 03:45 -27.41292 138.45867 36208 ft 426 kts 327°
2026-05-05 03:45 -27.36043 138.42771 36209 ft 426 kts 327°
2026-05-05 03:46 -27.30783 138.39670 36211 ft 426 kts 327°
2026-05-05 03:46 -27.25517 138.36569 36208 ft 427 kts 327°
2026-05-05 03:47 -27.20247 138.33470 36212 ft 427 kts 327°
2026-05-05 03:47 -27.14974 138.30372 36212 ft 428 kts 327°
2026-05-05 03:48 -27.09693 138.27273 36213 ft 428 kts 327°
2026-05-05 03:48 -27.04445 138.24196 36215 ft 429 kts 327°
2026-05-05 03:49 -26.99159 138.21099 36225 ft 429 kts 327°
2026-05-05 03:49 -26.93866 138.18002 36227 ft 429 kts 327°
2026-05-05 03:50 -26.88556 138.14899 36225 ft 430 kts 327°
2026-05-05 03:50 -26.83251 138.11806 36227 ft 429 kts 327°
2026-05-05 03:51 -26.77983 138.08735 36216 ft 429 kts 327°
2026-05-05 03:51 -26.72684 138.05648 36217 ft 429 kts 327°
2026-05-05 03:52 -26.67394 138.02569 36216 ft 429 kts 327°
2026-05-05 03:52 -26.62099 137.99492 36214 ft 428 kts 327°
2026-05-05 03:53 -26.56799 137.96415 36209 ft 428 kts 327°
2026-05-05 03:53 -26.51507 137.93346 36211 ft 428 kts 327°
2026-05-05 03:54 -26.46251 137.90300 36211 ft 428 kts 327°
2026-05-05 03:54 -26.40964 137.87240 36210 ft 428 kts 327°
2026-05-05 03:55 -26.35684 137.84187 36239 ft 429 kts 327°
2026-05-05 03:55 -26.33033 137.82654 36390 ft 429 kts 327°
2026-05-05 03:55 -26.30389 137.81128 36588 ft 428 kts 327°
2026-05-05 03:56 -26.27741 137.79600 36777 ft 427 kts 327°
2026-05-05 03:56 -26.25106 137.78081 36941 ft 426 kts 327°
2026-05-05 03:56 -26.22476 137.76564 37117 ft 425 kts 327°
2026-05-05 03:56 -26.19840 137.75045 37272 ft 425 kts 327°
2026-05-05 03:57 -26.17221 137.73537 37422 ft 424 kts 327°
2026-05-05 03:57 -26.14599 137.72028 37572 ft 424 kts 327°
2026-05-05 03:57 -26.11979 137.70520 37712 ft 423 kts 327°
2026-05-05 03:57 -26.09403 137.69039 37857 ft 422 kts 327°
2026-05-05 03:58 -26.06787 137.67535 37986 ft 422 kts 327°
2026-05-05 03:58 -26.04174 137.66034 38113 ft 421 kts 327°
2026-05-05 03:58 -25.98967 137.63044 38212 ft 421 kts 327°
2026-05-05 03:59 -25.93772 137.60065 38217 ft 420 kts 327°
2026-05-05 03:59 -25.88579 137.57090 38209 ft 420 kts 327°
2026-05-05 04:00 -25.83374 137.54110 38210 ft 420 kts 327°
2026-05-05 04:00 -25.78212 137.51159 38205 ft 420 kts 327°
2026-05-05 04:01 -25.73016 137.48191 38213 ft 420 kts 327°
2026-05-05 04:01 -25.67819 137.45225 38215 ft 420 kts 327°
2026-05-05 04:02 -25.65229 137.43750 38231 ft 409 kts 327°
2026-05-05 04:02 -25.62697 137.42314 38224 ft 410 kts 327°
2026-05-05 04:02 -25.57592 137.39400 38163 ft 417 kts 327°
2026-05-05 04:03 -25.52412 137.36419 37933 ft 420 kts 327°
2026-05-05 04:03 -25.49816 137.34919 37764 ft 420 kts 327°
2026-05-05 04:03 -25.47227 137.33420 37553 ft 420 kts 327°
2026-05-05 04:04 -25.44637 137.31916 37293 ft 420 kts 326°
2026-05-05 04:04 -25.42080 137.30428 37026 ft 420 kts 326°
2026-05-05 04:04 -25.39490 137.28917 36722 ft 421 kts 326°
2026-05-05 04:04 -25.36886 137.27394 36377 ft 422 kts 326°
2026-05-05 04:05 -25.34284 137.25867 36002 ft 424 kts 326°
2026-05-05 04:05 -25.31671 137.24328 35603 ft 427 kts 326°
2026-05-05 04:05 -25.29052 137.22780 35177 ft 428 kts 326°
2026-05-05 04:05 -25.26428 137.21225 34721 ft 427 kts 326°
2026-05-05 04:06 -25.23810 137.19672 34243 ft 426 kts 326°
2026-05-05 04:06 -25.21194 137.18115 33659 ft 427 kts 326°
2026-05-05 04:06 -25.18567 137.16547 33046 ft 430 kts 326°
2026-05-05 04:06 -25.15958 137.14983 32414 ft 434 kts 326°
2026-05-05 04:07 -25.13298 137.13382 31768 ft 437 kts 326°
2026-05-05 04:07 -25.10617 137.11763 31097 ft 439 kts 326°
2026-05-05 04:07 -25.07929 137.10135 30405 ft 442 kts 326°
2026-05-05 04:07 -25.05232 137.08495 29583 ft 442 kts 327°
2026-05-05 04:08 -25.02537 137.06851 28730 ft 443 kts 327°
2026-05-05 04:08 -24.99838 137.05199 27858 ft 444 kts 327°
2026-05-05 04:08 -24.97139 137.03541 26993 ft 445 kts 327°
2026-05-05 04:08 -24.94427 137.01870 26113 ft 447 kts 327°
2026-05-05 04:09 -24.91707 137.00187 25229 ft 449 kts 327°
2026-05-05 04:09 -24.88974 136.98491 24321 ft 452 kts 328°
2026-05-05 04:09 -24.86232 136.96781 23353 ft 455 kts 328°
2026-05-05 04:09 -24.83504 136.95076 22263 ft 457 kts 328°
2026-05-05 04:10 -24.80722 136.93331 21167 ft 460 kts 328°
2026-05-05 04:10 -24.77940 136.91582 20095 ft 462 kts 328°
2026-05-05 04:10 -24.75160 136.89833 19364 ft 457 kts 328°
2026-05-05 04:10 -24.72420 136.88113 18641 ft 451 kts 328°
2026-05-05 04:11 -24.69708 136.86412 17849 ft 445 kts 328°
2026-05-05 04:11 -24.67032 136.84737 17087 ft 440 kts 328°
2026-05-05 04:11 -24.64385 136.83083 16301 ft 435 kts 328°
2026-05-05 04:11 -24.61770 136.81453 15544 ft 430 kts 328°
2026-05-05 04:12 -24.59178 136.79839 14815 ft 425 kts 328°
2026-05-05 04:12 -24.56649 136.78268 14123 ft 421 kts 328°
2026-05-05 04:12 -24.54114 136.76697 13340 ft 416 kts 328°
2026-05-05 04:12 -24.51602 136.75139 12525 ft 413 kts 328°
2026-05-05 04:13 -24.49104 136.73592 11725 ft 409 kts 328°
2026-05-05 04:13 -24.46638 136.72066 10978 ft 405 kts 328°
2026-05-05 04:13 -24.44189 136.70551 10228 ft 402 kts 328°
2026-05-05 04:13 -24.41755 136.69047 9419 ft 400 kts 328°
2026-05-05 04:14 -24.39333 136.67552 8624 ft 398 kts 329°
2026-05-05 04:14 -24.36924 136.66066 7818 ft 397 kts 329°
2026-05-05 04:14 -24.34527 136.64586 7111 ft 394 kts 329°
2026-05-05 04:14 -24.32167 136.63129 6387 ft 391 kts 330°
2026-05-05 04:15 -24.29783 136.61654 5598 ft 391 kts 330°
2026-05-05 04:15 -24.27428 136.60194 5056 ft 385 kts 330°
2026-05-05 04:15 -24.25120 136.58763 4548 ft 378 kts 330°
2026-05-05 04:15 -24.22850 136.57359 4012 ft 372 kts 330°
2026-05-05 04:16 -24.20605 136.55975 3475 ft 367 kts 330°
2026-05-05 04:16 -24.18391 136.54615 2877 ft 363 kts 330°
2026-05-05 04:16 -24.16220 136.53285 2270 ft 360 kts 330°
2026-05-05 04:16 -24.14006 136.51936 1623 ft 359 kts 330°
2026-05-05 04:17 -24.11846 136.50620 938 ft 360 kts 332°
2026-05-05 04:17 -24.10966 136.50085 659 ft 0 kts 331°